Location: México DF
(19.4326°N, 99.1332°W)
Time: 20:24:26
(UTC+00:00)

ISS - Pass Details

Date: 10 September 2024
Orbit: 413 x 423 km, 51.6° (Epoch: 19 September)

Event Time Altitude Azimuth Distance (km) Brightness Sun altitude
Rises 01:25:35 0° 223° (SW) 2,334 0.5 -10.6°
Reaches altitude 10° 01:27:40 10° 226° (SW) 1,475 -0.5 -11.1°
Maximum altitude 01:30:57 67° 309° (NW) 451 -3.4 -11.8°
Drops below altitude 10° 01:34:16 10° 33° (NNE) 1,485 -1.2 -12.6°
Enters shadow 01:35:50 - 35° (NE) 2,130 -0.4 -13.0°
